COSMOS 830

Satellite information

Favourite Embed

Satellite Type and Status

PAYLOADIN ORBIT

Key statistics

Satellite COSMOS 830 at a glance.

Uptime

18036

Days in orbit

Revolutions

≈ 12.5

Per day

Orbit

LEO

Low Earth Orbit

Inclination

74.0

Latest

Satellite identification and parameters

Extended collection of information and parameters for COSMOS 830.

Object identification

Identified? True

Debris? False

Object name: COSMOS 830

International designator: 1976-054F

Object number (NORAD): 8894

Object ID (CCSDS): 8894

Country: COMMONWEALTH OF INDEPENDENT STATES (CIS)

Current information (Y/N): Y

RCS size: MEDIUM

Orbital parameters

Period: 115.546 minutes

Inclination: 74.0038 deg

SMA: 7858.329 km

Apoapsis: 1493.162 km

Periapsis: 1467.226 km

RAAN: 35.9988 deg

Eccentricy: 0.0016502

Argument of periapsis: 300.5935 deg

Mean anomaly: 174.6508 deg

Mean motion: 12.46256615 rev/day

Mean motion (dot): -0.00000015 rev/day2

B* drag term: 0.0000040625 1/REarth

Two-line elements (TLE)

Creation date: Oct. 31, 2025, 10:56 p.m.

Reference frame: TEME

Reference center: EARTH

Epoch: Oct. 31, 2025, 5:44 p.m. UTC

TLE line 0: 0 COSMOS 830

TLE line 1: 1 8894U 76054F 25304.73910707 -.00000015 00000-0 40625-5 0 9998

TLE line 2: 2 8894 74.0038 35.9988 0016502 300.5935 174.6508 12.46256615246410

Live tracking on map

Real-time ground track for satellite COSMOS 830.

In-orbit conjunctions

A list of the most updated potential collisions computed for object COSMOS 830.

Target Orbit TCA Probability of collision Miss distance Type
SL-14 R/B LEO 2025-10-31 05:08:32 0.0001271044 183.0 (m) ROCKET BODY

Associated space launch

Military communications satellites

COSMOS 830 was lifted into orbit during the mission ‘Kosmos-3M | Strela-1M 113-120’, on board a Kosmos-3M space rocket.

The launch took place on June 15, 1976, 1:19 p.m. from 132/2.

For more information about the launch, click the button.

Launch to space Kosmos-3M | Strela-1M 113-120
Kosmos-3M | Strela-1M 113-120

Agency: N/A

Status: Launch Successful

Launch date: June 15, 1976, 1:19 p.m. UTC

Rocket: Kosmos-3M

Launch pad: 132/2

Location: Plesetsk Cosmodrome, Russian Federation

...

Latest news about this satellite

There are no fresh news available about this satellite. Check back as we update our databases every day.


Newsletter sign-up

Weekly statistics, charts and insights to help you stay on top of the space industry.